20060417,000009,1382381,34.879861,-121.175532,17.7,13.981,32.950,39.887,1168.11,0.0, NaN,13.964,13.909, NaN,24.537,   NaN,-40.00,1014.25,80.40,11.75,129.1,131.3,3.9,3.0,257.9,263.0,5.6,4.9,NaN, NaN,14.0,110.3,121.2,1145232008,1145232008,2,3.8,000009,000008,110.3,34.879966,-121.175678,4.38,NaN,NaN,14.208, NaN,NaN,NaN, NaN, NaN,NaN
20060417,000039,1382411,34.879618,-121.174815,17.8,13.979,32.952,39.887,1271.94,0.0, NaN,13.962,13.908, NaN,24.539,   NaN,-40.00,1018.69,81.84,12.81,127.7,132.6,4.1,3.5,256.3,261.9,5.8,5.4,NaN, NaN,15.0,109.1,110.6,1145232039,1145232038,2,5.1,000039,000038,109.1,34.879713,-121.174963,4.61,NaN,NaN,14.206, NaN,NaN,NaN, NaN, NaN,NaN
20060417,000109,1382440,34.879383,-121.174167,17.8,13.977,32.950,39.883,1311.65,0.0, NaN,13.961,13.906, NaN,24.537,   NaN,-40.00,1016.95,84.12,15.22,132.3,137.4,4.3,4.0,258.9,263.1,6.1,5.9,NaN, NaN,14.0,112.4,112.3,1145232069,1145232068,2,4.2,000069,000068,112.4,34.879491,-121.174312,4.01,NaN,NaN,14.204, NaN,NaN,NaN, NaN, NaN,NaN
20060417,000139,1382470,34.879166,-121.173660,17.7,13.973,32.951,39.881,1279.62,0.0, NaN,13.957,13.902, NaN,24.540,   NaN,-40.00,1016.51,82.98,14.27,134.2,138.8,4.3,3.9,262.2,266.5,5.9,5.6,NaN, NaN,14.0,119.5,134.1,1145232099,1145232098,2,2.9,000099,000098,119.5,34.879285,-121.173787,3.25,NaN,NaN,14.200, NaN,NaN,NaN, NaN, NaN,NaN
20060417,000209,1382501,34.878980,-121.173253,17.8,13.972,32.951,39.880,1312.85,0.0, NaN,13.955,13.902, NaN,24.539,   NaN,-40.00,1016.43,83.20,14.19,128.2,128.2,4.3,3.4,261.9,265.0,5.5,4.6,NaN, NaN,14.0,128.6,105.6,1145232129,1145232128,2,2.8,000129,000128,128.6,34.879115,-121.173363,2.30,NaN,NaN,14.199, NaN,NaN,NaN, NaN, NaN,NaN
20060417,000239,1382531,34.878718,-121.172867,17.7,13.970,32.952,39.879,1323.38,0.0, NaN,13.956,13.902, NaN,24.541,   NaN,-40.00,1016.34,83.33,14.23,117.1,115.2,4.2,3.1,260.7,263.3,5.1,4.0,NaN, NaN,15.0,137.1,134.3,1145232158,1145232158,2,2.3,000159,000158,137.1,34.878855,-121.172955,2.79,NaN,NaN,14.197, NaN,NaN,NaN, NaN, NaN,NaN
20060417,000309,1382561,34.878300,-121.172412,17.7,13.971,32.948,39.876,1384.54,0.0, NaN,13.954,13.901, NaN,24.538,   NaN,-40.00,1016.23,83.04,14.23,105.7,104.1,3.9,3.5,266.7,265.4,4.6,4.2,NaN, NaN,17.0,150.0,136.1,1145232189,1145232188,2,3.1,000189,000188,150.6,34.878445,-121.172468,3.87,NaN,NaN,14.198, NaN,NaN,NaN, NaN, NaN,NaN
20060417,000339,1382591,34.877713,-121.172067,17.9,13.960,32.956,39.875,1337.69,0.0, NaN,13.954,13.898, NaN,24.546,   NaN,-40.00,1016.27,83.16,14.17,89.3,91.8,3.8,3.8,273.7,272.1,4.3,4.4,NaN, NaN,18.0,165.0,170.8,1145232218,1145232218,2,4.9,000219,000218,165.3,34.877868,-121.172053,4.24,NaN,NaN,14.187, NaN,NaN,NaN, NaN, NaN,NaN
20060417,000409,1382620,34.877050,-121.171858,17.6,13.957,32.952,39.869,1259.62,0.0, NaN,13.951,13.893, NaN,24.543,   NaN,-40.00,1016.32,83.76,14.12,72.4,79.6,3.7,3.5,280.3,284.3,3.8,3.9,NaN, NaN,19.0,181.1,178.2,1145232248,1145232248,2,4.7,000249,000248,181.0,34.877198,-121.171797,4.49,NaN,NaN,14.185, NaN,NaN,NaN, NaN, NaN,NaN
20060417,000439,1382650,34.876368,-121.171818,17.9,13.960,32.952,39.870,1248.14,0.0, NaN,13.951,13.893, NaN,24.543,   NaN,-40.00,1016.24,84.04,14.05,64.8,70.8,4.0,3.4,284.7,293.6,3.8,3.5,NaN, NaN,18.0,183.5,175.7,1145232279,1145232278,2,4.5,000279,000278,183.5,34.876500,-121.171763,4.53,NaN,NaN,14.187, NaN,NaN,NaN, NaN, NaN,NaN
20060417,000509,1382681,34.875641,-121.171777,17.8,13.964,32.946,39.866,1248.91,0.0, NaN,13.953,13.897, NaN,24.537,   NaN,-40.00,1016.28,83.86,13.99,65.6,71.2,4.3,3.7,285.5,295.4,4.0,3.8,NaN, NaN,19.0,180.5,177.0,1145232309,1145232308,2,5.4,000309,000308,180.5,34.875773,-121.171728,4.70,NaN,NaN,14.191, NaN,NaN,NaN, NaN, NaN,NaN
20060417,000539,1382711,34.874898,-121.171682,17.8,13.972,32.942,39.870,1313.23,0.0, NaN,13.954,13.901, NaN,24.532,   NaN,-40.00,1016.26,83.87,13.95,63.6,71.6,4.5,3.8,282.0,294.3,4.1,3.9,NaN, NaN,19.0,179.5,171.3,1145232338,1145232338,2,5.7,000339,000338,179.5,34.875015,-121.171643,5.14,NaN,NaN,14.199, NaN,NaN,NaN, NaN, NaN,NaN
20060417,000609,1382741,34.874138,-121.171617,17.7,13.983,32.939,39.876,1370.92,0.0, NaN,13.958,13.907, NaN,24.527,   NaN,-40.00,1016.30,83.43,13.90,62.1,71.0,4.7,3.8,278.5,294.6,4.3,3.9,NaN, NaN,20.0,180.3,177.3,1145232368,1145232368,2,5.1,000369,000368,180.3,34.874266,-121.171575,4.69,NaN,NaN,14.210, NaN,NaN,NaN, NaN, NaN,NaN
20060417,000639,1382770,34.873363,-121.171518,17.7,13.992,32.939,39.884,1165.59,0.0, NaN,13.966,13.915, NaN,24.525,   NaN,-40.00,1016.32,83.23,13.88,62.9,72.8,4.7,3.6,280.5,298.2,4.2,3.9,NaN, NaN,19.0,182.0,166.1,1145232398,1145232398,2,5.6,000399,000398,182.0,34.873498,-121.171490,4.90,NaN,NaN,14.219, NaN,NaN,NaN, NaN, NaN,NaN
20060417,000709,1382800,34.872576,-121.171472,17.6,14.005,32.936,39.892,1127.48,0.0, NaN,13.972,13.918, NaN,24.520,   NaN,-40.00,1016.28,83.33,13.89,60.4,71.6,4.7,3.5,280.0,300.0,4.1,3.8,NaN, NaN,19.0,180.3,179.9,1145232428,1145232428,2,5.9,000429,000428,180.3,34.872711,-121.171428,5.27,NaN,NaN,14.232, NaN,NaN,NaN, NaN, NaN,NaN
20060417,000739,1382831,34.871806,-121.171353,18.0,14.007,32.940,39.900,1109.42,0.0, NaN,13.975,13.923, NaN,24.523,   NaN,-40.00,1016.29,83.06,13.89,64.2,72.4,5.1,3.9,279.4,295.1,4.7,4.1,NaN, NaN,19.0,174.3,166.9,1145232458,1145232458,2,5.5,000459,000458,174.3,34.871945,-121.171335,5.36,NaN,NaN,14.234, NaN,NaN,NaN, NaN, NaN,NaN
20060417,000809,1382861,34.871026,-121.171172,17.6,14.007,32.943,39.903,1057.09,0.0, NaN,13.977,13.921, NaN,24.525,   NaN,-40.00,1016.42,83.04,13.84,71.8,77.7,5.1,4.6,279.6,287.0,5.0,4.9,NaN, NaN,18.0,161.8,174.2,1145232488,1145232488,2,6.0,000489,000488,161.8,34.871181,-121.171177,5.17,NaN,NaN,14.234, NaN,NaN,NaN, NaN, NaN,NaN
20060417,000839,1382891,34.870311,-121.170740,17.6,13.996,32.950,39.901,1025.11,0.0, NaN,13.974,13.921, NaN,24.533,   NaN,-40.00,1016.30,83.65,13.90,93.9,83.5,3.6,4.7,291.7,279.0,4.7,5.2,NaN, NaN,18.0,144.6,161.0,1145232518,1145232518,2,4.7,000519,000518,144.6,34.870473,-121.170797,5.36,NaN,NaN,14.223, NaN,NaN,NaN, NaN, NaN,NaN
20060417,000909,1382921,34.869693,-121.170093,17.5,13.989,32.950,39.895,993.81,0.0, NaN,13.969,13.915, NaN,24.535,   NaN,-40.00,1016.36,83.48,13.90,106.1,90.6,3.4,4.6,287.1,269.4,5.0,5.5,NaN, NaN,18.0,134.6,134.8,1145232548,1145232548,2,6.7,000549,000548,134.6,34.869840,-121.170178,5.65,NaN,NaN,14.216, NaN,NaN,NaN, NaN, NaN,NaN
20060417,000939,1382950,34.869123,-121.169408,17.9,13.977,32.954,39.888,971.09,0.0, NaN,13.962,13.909, NaN,24.541,   NaN,-40.00,1016.48,83.29,13.89,105.1,97.4,3.8,4.5,274.7,266.1,5.4,5.7,NaN, NaN,19.0,135.1,139.6,1145232578,1145232578,2,6.5,000579,000578,135.1,34.869260,-121.169497,5.19,NaN,NaN,14.204, NaN,NaN,NaN, NaN, NaN,NaN
20060417,001009,1382980,34.868575,-121.168665,17.6,13.968,32.955,39.881,946.76,0.0, NaN,13.957,13.902, NaN,24.543,   NaN,-40.00,1016.55,83.28,13.92,116.0,100.8,3.5,3.5,278.2,270.6,5.4,5.0,NaN, NaN,19.0,125.8,127.9,1145232609,1145232608,2,6.3,000609,000608,125.8,34.868700,-121.168783,5.81,NaN,NaN,14.195, NaN,NaN,NaN, NaN, NaN,NaN
20060417,001039,1383011,34.868095,-121.167818,17.9,13.969,32.948,39.874,928.95,0.0, NaN,13.953,13.900, NaN,24.538,   NaN,-40.00,1016.47,83.40,13.97,118.3,104.5,3.4,2.8,274.8,270.1,5.5,4.7,NaN, NaN,18.0,115.1,121.5,1145232639,1145232638,2,6.2,000639,000638,115.1,34.868203,-121.167953,5.95,NaN,NaN,14.196, NaN,NaN,NaN, NaN, NaN,NaN
20060417,001109,1383041,34.867768,-121.166878,17.7,13.976,32.943,39.874,918.44,0.0, NaN,13.953,13.899, NaN,24.531,   NaN,-40.00,1016.52,83.50,14.02,114.5,113.6,2.9,2.6,266.3,265.5,5.1,4.7,NaN, NaN,18.0,105.0,109.5,1145232669,1145232668,2,5.9,000669,000668,105.0,34.867846,-121.167043,5.74,NaN,NaN,14.203, NaN,NaN,NaN, NaN, NaN,NaN
20060417,001139,1383071,34.867488,-121.165923,17.8,13.978,32.942,39.875,916.37,0.0, NaN,13.953,13.900, NaN,24.531,   NaN,-40.00,1016.48,83.33,14.04,119.7,124.2,2.7,2.5,261.6,263.9,5.0,4.9,NaN, NaN,17.0,108.6,114.7,1145232698,1145232698,2,5.8,000699,000698,108.6,34.867561,-121.166077,6.15,NaN,NaN,14.205, NaN,NaN,NaN, NaN, NaN,NaN
20060417,001209,1383100,34.867151,-121.164923,17.9,13.980,32.943,39.878,922.58,0.0, NaN,13.955,13.902, NaN,24.531,   NaN,-40.00,1016.46,83.27,14.11,123.8,129.0,3.4,2.6,259.1,265.7,5.8,5.2,NaN, NaN,17.0,109.1,110.0,1145232728,1145232728,2,6.5,000729,000728,109.1,34.867233,-121.165077,6.48,NaN,NaN,14.207, NaN,NaN,NaN, NaN, NaN,NaN
20060417,001239,1383130,34.866796,-121.163783,17.7,13.988,32.938,39.880,930.70,0.0, NaN,13.956,13.908, NaN,24.526,   NaN,-40.00,1016.48,83.05,14.16,126.5,130.4,3.4,2.4,261.8,268.2,6.1,5.3,NaN, NaN,16.0,108.5,110.2,1145232758,1145232758,2,6.6,000759,000758,108.5,34.866880,-121.163943,7.28,NaN,NaN,14.215, NaN,NaN,NaN, NaN, NaN,NaN
20060417,001309,1383160,34.866438,-121.162478,17.7,13.992,32.940,39.885,959.29,0.0, NaN,13.961,13.911, NaN,24.526,   NaN,-40.00,1016.46,82.95,14.15,130.0,124.1,2.5,2.1,267.9,268.5,5.7,5.3,NaN, NaN,16.0,104.3,107.5,1145232789,1145232788,2,7.8,000789,000788,104.3,34.866505,-121.162640,8.34,NaN,NaN,14.219, NaN,NaN,NaN, NaN, NaN,NaN
20060417,001339,1383191,34.866050,-121.161047,18.0,13.992,32.943,39.889,1020.41,0.0, NaN,13.963,13.912, NaN,24.528,   NaN,-40.00,1016.46,83.16,14.20,118.6,108.9,1.7,1.8,271.2,267.0,5.3,5.1,NaN, NaN,16.0,105.0,110.8,1145232819,1145232818,2,9.0,000819,000818,105.0,34.866130,-121.161207,9.30,NaN,NaN,14.219, NaN,NaN,NaN, NaN, NaN,NaN
20060417,001409,1383221,34.865765,-121.159507,17.7,13.989,32.947,39.891,1004.22,0.0, NaN,13.958,13.906, NaN,24.532,   NaN,-40.00,1016.57,83.18,14.26,121.6,108.7,1.7,1.8,268.7,264.1,5.7,5.4,NaN, NaN,15.0,92.3,97.5,1145232848,1145232848,2,9.3,000849,000848,92.3,34.865823,-121.159678,9.65,NaN,NaN,14.216, NaN,NaN,NaN, NaN, NaN,NaN
20060417,001439,1383251,34.865713,-121.157877,17.8,13.975,32.953,39.885,977.29,0.0, NaN,13.955,13.902, NaN,24.541,   NaN,-40.00,1016.36,83.04,14.27,143.6,136.4,1.7,1.9,263.9,261.8,6.1,6.2,NaN, NaN,15.0,82.8,89.9,1145232879,1145232878,2,9.7,000879,000878,83.0,34.865743,-121.158058,9.79,NaN,NaN,14.202, NaN,NaN,NaN, NaN, NaN,NaN
20060417,001509,1383280,34.865875,-121.156268,17.9,13.975,32.948,39.879,966.52,0.0, NaN,13.953,13.901, NaN,24.536,   NaN,-40.00,1016.61,83.03,14.30,189.6,166.1,1.4,1.6,264.6,261.4,6.1,6.4,NaN, NaN,15.0,75.6,82.6,1145232908,1145232908,2,10.7,000909,000908,75.3,34.865888,-121.156457,9.73,NaN,NaN,14.202, NaN,NaN,NaN, NaN, NaN,NaN
20060417,001539,1383310,34.866305,-121.154697,17.8,13.976,32.948,39.880,956.44,0.0, NaN,13.949,13.894, NaN,24.536,   NaN,-40.00,1016.56,82.76,14.30,229.1,211.2,1.8,1.7,265.4,262.1,6.3,6.2,NaN, NaN,14.0,59.9,64.2,1145232939,1145232938,2,9.9,000939,000938,59.9,34.866285,-121.154887,10.31,NaN,NaN,14.203, NaN,NaN,NaN, NaN, NaN,NaN
20060417,001609,1383341,34.867003,-121.153248,17.8,13.968,32.952,39.877,958.78,0.0, NaN,13.945,13.890, NaN,24.541,   NaN,-40.00,1016.50,82.33,14.28,245.8,247.1,2.6,1.7,263.1,256.8,6.5,5.9,NaN, NaN,15.0,43.9,53.1,1145232968,1145232968,2,9.6,000969,000968,43.9,34.866950,-121.153433,10.30,NaN,NaN,14.195, NaN,NaN,NaN, NaN, NaN,NaN
20060417,001639,1383371,34.867971,-121.152095,17.8,13.970,32.947,39.874,961.92,0.0, NaN,13.935,13.880, NaN,24.537,   NaN,-40.00,1016.49,82.59,14.22,264.5,265.5,3.4,2.0,261.2,249.6,6.4,5.4,NaN, NaN,15.0,46.1,42.6,1145232999,1145232998,2,9.7,000999,000998,46.1,34.867916,-121.152273,10.28,NaN,NaN,14.197, NaN,NaN,NaN, NaN, NaN,NaN
20060417,001709,1383401,34.868900,-121.150845,17.7,13.937,32.966,39.864,946.09,0.0, NaN,13.911,13.850, NaN,24.558,   NaN,-40.00,1016.59,82.99,14.16,271.7,280.3,4.0,2.6,262.8,252.7,6.4,5.2,NaN, NaN,16.0,45.2,49.2,1145233028,1145233028,2,10.1,001029,001028,45.2,34.868845,-121.151030,10.27,NaN,NaN,14.165, NaN,NaN,NaN, NaN, NaN,NaN
20060417,001739,1383431,34.869825,-121.149597,17.4,13.878,32.990,39.839,926.62,0.0, NaN,13.885,13.822, NaN,24.590,   NaN,-40.00,1016.47,83.18,14.10,271.6,278.4,4.1,2.6,265.4,254.9,6.5,5.4,NaN, NaN,16.0,45.8,47.9,1145233058,1145233058,2,9.7,001059,001058,45.8,34.869768,-121.149772,10.33,NaN,NaN,14.107, NaN,NaN,NaN, NaN, NaN,NaN
20060417,001809,1383460,34.870750,-121.148363,17.6,13.846,32.976,39.793,910.11,0.0, NaN,13.865,13.802, NaN,24.585,   NaN,-40.00,1016.58,83.25,14.06,270.5,274.8,4.0,2.3,264.2,251.1,6.5,5.5,NaN, NaN,16.0,46.8,48.1,1145233089,1145233088,2,9.9,001089,001088,46.8,34.870703,-121.148547,10.51,NaN,NaN,14.075, NaN,NaN,NaN, NaN, NaN,NaN
20060417,001839,1383490,34.871665,-121.147110,17.5,13.851,32.956,39.774,891.16,0.0, NaN,13.849,13.790, NaN,24.568,   NaN,-40.00,1016.55,83.35,14.02,267.7,272.7,3.9,2.2,262.9,249.5,6.5,5.4,NaN, NaN,15.0,47.0,42.3,1145233118,1145233118,2,10.1,001119,001118,47.0,34.871620,-121.147283,10.45,NaN,NaN,14.080, NaN,NaN,NaN, NaN, NaN,NaN
20060417,001909,1383521,34.872571,-121.145872,17.3,13.838,32.956,39.763,872.51,0.0, NaN,13.839,13.778, NaN,24.571,   NaN,-40.00,1016.46,83.36,13.99,268.4,273.0,3.8,2.2,262.8,250.4,6.4,5.4,NaN, NaN,15.0,48.3,44.1,1145233149,1145233148,2,9.4,001149,001148,48.3,34.872528,-121.146048,10.25,NaN,NaN,14.067, NaN,NaN,NaN, NaN, NaN,NaN
20060417,001939,1383551,34.873453,-121.144610,17.3,13.824,32.956,39.751,852.58,0.0, NaN,13.826,13.764, NaN,24.574,   NaN,-40.00,1016.54,83.42,13.98,271.1,275.2,4.0,2.5,265.1,253.1,6.4,5.4,NaN, NaN,15.0,46.3,53.9,1145233179,1145233178,2,10.3,001179,001178,46.3,34.873411,-121.144788,10.28,NaN,NaN,14.053, NaN,NaN,NaN, NaN, NaN,NaN
20060417,002009,1383581,34.874356,-121.143375,17.3,13.815,32.952,39.738,835.32,0.0, NaN,13.805,13.741, NaN,24.572,   NaN,-40.00,1016.59,83.23,13.97,269.3,268.5,4.1,2.4,265.5,252.1,6.6,5.5,NaN, NaN,15.0,47.6,51.4,1145233209,1145233208,2,9.6,001209,001208,47.6,34.874311,-121.143558,10.25,NaN,NaN,14.045, NaN,NaN,NaN, NaN, NaN,NaN
20060417,002039,1383610,34.875241,-121.142142,17.7,13.774,32.969,39.719,818.29,0.0, NaN,13.781,13.717, NaN,24.594,   NaN,-40.00,1016.50,83.04,13.96,267.5,267.6,4.0,2.2,263.9,249.9,6.6,5.5,NaN, NaN,16.0,46.5,51.4,1145233238,1145233238,2,9.2,001239,001238,46.5,34.875200,-121.142330,9.99,NaN,NaN,14.004, NaN,NaN,NaN, NaN, NaN,NaN
20060417,002109,1383640,34.876131,-121.140912,17.3,13.746,32.963,39.688,802.98,0.0, NaN,13.759,13.694, NaN,24.595,   NaN,-40.00,1016.51,82.94,13.92,265.3,282.9,3.8,1.9,262.0,245.5,6.5,5.1,NaN, NaN,16.0,47.0,48.3,1145233268,1145233268,2,9.4,001269,001268,47.0,34.876083,-121.141093,10.01,NaN,NaN,13.977, NaN,NaN,NaN, NaN, NaN,NaN
20060417,002139,1383670,34.877005,-121.139647,17.5,13.730,32.957,39.666,787.35,0.0, NaN,13.749,13.689, NaN,24.594,   NaN,-40.00,1016.42,83.18,13.94,269.4,301.2,3.4,1.5,259.8,239.2,6.1,4.8,NaN, NaN,17.0,47.3,50.3,1145233298,1145233298,2,10.0,001299,001298,47.3,34.876955,-121.139823,10.40,NaN,NaN,13.961, NaN,NaN,NaN, NaN, NaN,NaN
20060417,002209,1383701,34.877866,-121.138377,17.8,13.749,32.926,39.649,774.55,0.0, NaN,13.750,13.690, NaN,24.565,   NaN,-40.00,1016.52,83.77,14.01,274.2,288.9,3.3,1.8,261.0,245.6,5.9,5.0,NaN, NaN,16.0,46.3,60.4,1145233329,1145233328,2,10.5,001329,001328,46.3,34.877821,-121.138562,10.29,NaN,NaN,13.980, NaN,NaN,NaN, NaN, NaN,NaN
20060417,002239,1383731,34.878751,-121.137140,17.3,13.773,32.919,39.662,768.63,0.0, NaN,13.748,13.689, NaN,24.554,   NaN,-40.00,1016.59,83.92,13.98,271.5,279.1,3.6,2.4,262.7,253.3,6.1,5.2,NaN, NaN,16.0,47.4,45.9,1145233359,1145233358,2,9.6,001359,001358,47.4,34.878708,-121.137320,10.07,NaN,NaN,14.003, NaN,NaN,NaN, NaN, NaN,NaN
20060417,002309,1383761,34.879576,-121.135830,17.4,13.767,32.930,39.669,759.47,0.0, NaN,13.747,13.688, NaN,24.564,   NaN,-40.00,1016.63,83.85,13.97,269.9,283.5,4.0,2.3,266.6,254.7,6.4,5.1,NaN, NaN,16.0,59.5,61.8,1145233389,1145233388,2,10.0,001389,001388,59.5,34.879566,-121.136030,10.34,NaN,NaN,13.997, NaN,NaN,NaN, NaN, NaN,NaN
20060417,002339,1383790,34.880091,-121.134303,17.6,13.766,32.928,39.666,747.50,0.0, NaN,13.731,13.669, NaN,24.563,   NaN,-40.00,1016.59,83.80,13.96,251.9,261.5,3.2,1.7,265.7,250.9,6.5,5.3,NaN, NaN,16.0,71.3,75.2,1145233418,1145233418,2,9.9,001419,001418,71.3,34.880115,-121.134503,10.45,NaN,NaN,13.996, NaN,NaN,NaN, NaN, NaN,NaN
20060417,002409,1383820,34.880331,-121.132633,17.5,13.681,32.988,39.656,740.27,0.0, NaN,13.728,13.671, NaN,24.628,   NaN,-40.00,1016.69,83.67,14.00,215.3,169.3,1.8,1.0,261.3,251.5,6.4,5.5,NaN, NaN,16.0,82.2,86.2,1145233448,1145233448,2,10.8,001449,001448,82.2,34.880376,-121.132828,10.52,NaN,NaN,13.913, NaN,NaN,NaN, NaN, NaN,NaN
20060417,002439,1383851,34.880256,-121.130992,17.7,13.754,32.902,39.626,744.98,0.0, NaN,13.742,13.689, NaN,24.545,   NaN,-40.00,1016.58,83.61,14.04,171.2,105.6,1.2,0.8,262.7,258.6,6.1,5.4,NaN, NaN,16.0,99.4,97.2,1145233479,1145233478,2,9.8,001479,001478,99.4,34.880333,-121.131113,10.52,NaN,NaN,13.984, NaN,NaN,NaN, NaN, NaN,NaN
20060417,002509,1383881,34.879768,-121.129287,17.6,13.797,32.893,39.654,751.80,0.0, NaN,13.756,13.702, NaN,24.528,   NaN,-40.00,1016.48,83.38,14.03,111.7,93.2,1.9,1.7,263.0,262.3,6.0,5.7,NaN, NaN,16.0,114.0,113.7,1145233508,1145233508,2,9.9,001509,001508,114.0,34.879890,-121.129430,10.48,NaN,NaN,14.027, NaN,NaN,NaN, NaN, NaN,NaN
20060417,002539,1383911,34.878956,-121.127827,17.6,13.804,32.908,39.678,759.90,0.0, NaN,13.771,13.718, NaN,24.539,   NaN,-40.00,1016.43,83.10,14.03,95.7,94.5,3.0,3.0,266.5,265.8,6.3,6.3,NaN, NaN,16.0,130.5,127.7,1145233539,1145233538,2,10.8,001539,001538,131.0,34.879098,-121.127927,10.44,NaN,NaN,14.034, NaN,NaN,NaN, NaN, NaN,NaN
20060417,002609,1383941,34.877908,-121.126613,17.4,13.826,32.905,39.695,772.54,0.0, NaN,13.786,13.737, NaN,24.533,   NaN,-40.00,1016.50,83.14,14.03,79.2,87.0,2.9,3.4,279.1,274.6,5.7,6.2,NaN, NaN,15.0,136.4,139.1,1145233568,1145233568,2,10.4,001569,001568,136.8,34.878056,-121.126697,10.49,NaN,NaN,14.055, NaN,NaN,NaN, NaN, NaN,NaN
20060417,002639,1383970,34.876656,-121.125568,17.5,13.846,32.903,39.711,789.62,0.0, NaN,13.803,13.753, NaN,24.527,   NaN,-40.00,1016.34,83.58,13.98,65.9,79.3,3.1,3.1,285.2,286.0,5.2,5.8,NaN, NaN,16.0,148.6,152.1,1145233598,1145233598,2,11.0,001599,001598,148.6,34.876821,-121.125615,10.64,NaN,NaN,14.075, NaN,NaN,NaN, NaN, NaN,NaN
20060417,002709,1384000,34.875335,-121.124942,17.7,13.864,32.904,39.729,842.64,0.0, NaN,13.821,13.774, NaN,24.524,   NaN,-40.00,1016.48,83.56,13.97,64.3,74.3,4.1,3.2,285.3,297.0,5.3,5.6,NaN, NaN,16.0,166.0,164.9,1145233628,1145233628,2,10.6,001628,001628,166.0,34.875453,-121.124938,10.33,NaN,NaN,14.093, NaN,NaN,NaN, NaN, NaN,NaN
20060417,002739,1384031,34.873781,-121.124725,17.9,13.882,32.902,39.742,904.12,0.0, NaN,13.839,13.789, NaN,24.518,   NaN,-40.00,1016.19,83.52,13.97,55.5,66.0,5.3,3.4,284.6,308.5,5.1,5.2,NaN, NaN,18.0,180.0,182.9,1145233658,1145233658,2,10.4,001659,001658,180.0,34.873950,-121.124680,10.22,NaN,NaN,14.111, NaN,NaN,NaN, NaN, NaN,NaN
20060417,002809,1384061,34.872315,-121.124947,17.5,13.896,32.909,39.763,879.22,0.0, NaN,13.852,13.802, NaN,24.521,   NaN,-40.00,1016.44,83.57,13.91,47.5,51.5,6.9,4.1,280.1,312.0,5.2,4.4,NaN, NaN,17.0,195.1,190.5,1145233689,1145233688,2,11.2,001689,001688,195.1,34.872451,-121.124868,10.21,NaN,NaN,14.124, NaN,NaN,NaN, NaN, NaN,NaN
20060417,002839,1384091,34.870971,-121.125620,17.9,13.901,32.915,39.773,897.76,0.0, NaN,13.862,13.811, NaN,24.525,   NaN,-40.00,1016.36,83.67,13.90,39.4,38.2,8.6,6.0,273.2,297.5,5.7,4.0,NaN, NaN,17.0,213.5,211.0,1145233718,1145233718,2,10.3,001719,001718,213.5,34.871051,-121.125512,10.06,NaN,NaN,14.129, NaN,NaN,NaN, NaN, NaN,NaN
20060417,002909,1384120,34.869951,-121.126827,17.6,13.896,32.924,39.781,949.06,0.0, NaN,13.865,13.814, NaN,24.533,   NaN,-40.00,1016.36,84.04,13.93,26.2,25.3,10.1,8.5,266.0,275.6,5.9,4.5,NaN, NaN,18.0,240.8,234.1,1145233748,1145233748,2,10.5,001749,001748,240.8,34.869963,-121.126668,9.63,NaN,NaN,14.124, NaN,NaN,NaN, NaN, NaN,NaN
20060417,002939,1384150,34.869418,-121.128392,17.5,13.888,32.929,39.779,1011.80,0.0, NaN,13.865,13.813, NaN,24.539,   NaN,-40.00,1016.47,84.09,13.90,12.3,10.6,11.3,10.6,263.1,262.2,6.3,5.7,NaN, NaN,18.0,265.3,254.5,1145233778,1145233778,2,10.7,001779,001778,265.3,34.869386,-121.128247,9.54,NaN,NaN,14.117, NaN,NaN,NaN, NaN, NaN,NaN
20060417,003009,1384181,34.869473,-121.130022,17.3,13.881,32.928,39.771,949.52,0.0, NaN,13.858,13.806, NaN,24.539,   NaN,-40.00,1016.64,83.82,13.90,358.5,355.9,11.6,11.8,262.3,258.4,6.6,6.8,NaN, NaN,17.0,289.3,279.6,1145233809,1145233808,2,9.6,001809,001808,289.3,34.869386,-121.129907,9.54,NaN,NaN,14.110, NaN,NaN,NaN, NaN, NaN,NaN
20060417,003039,1384211,34.870055,-121.131430,17.5,13.864,32.938,39.767,918.12,0.0, NaN,13.851,13.796, NaN,24.551,   NaN,-40.00,1016.31,83.87,13.89,342.2,341.4,10.8,11.5,257.8,257.9,6.4,7.1,NaN, NaN,17.0,307.5,306.7,1145233839,1145233838,2,10.0,001839,001838,307.5,34.869953,-121.131360,9.00,NaN,NaN,14.093, NaN,NaN,NaN, NaN, NaN,NaN
20060417,003109,1384241,34.870826,-121.132792,17.4,13.845,32.945,39.756,888.26,0.0, NaN,13.835,13.780, NaN,24.560,   NaN,-40.00,1016.47,84.07,13.90,332.3,332.5,10.2,11.1,254.5,257.7,6.3,7.2,NaN, NaN,17.0,305.3,303.2,1145233869,1145233868,2,9.3,001869,001868,305.3,34.870728,-121.132710,9.64,NaN,NaN,14.074, NaN,NaN,NaN, NaN, NaN,NaN
20060417,003139,1384271,34.871610,-121.134178,17.4,13.822,32.950,39.741,849.95,0.0, NaN,13.816,13.760, NaN,24.570,   NaN,-40.00,1016.32,83.82,13.91,331.0,331.6,10.1,11.2,253.6,258.0,6.2,7.2,NaN, NaN,17.0,305.0,303.0,1145233899,1145233898,2,10.5,001899,001898,305.0,34.871511,-121.134098,9.65,NaN,NaN,14.051, NaN,NaN,NaN, NaN, NaN,NaN
20060417,003209,1384300,34.872278,-121.135615,17.1,13.793,32.950,39.715,827.43,0.0, NaN,13.799,13.742, NaN,24.575,   NaN,-40.00,1016.57,83.97,13.91,332.6,332.8,10.2,11.2,252.6,256.0,6.2,7.0,NaN, NaN,16.0,288.1,290.9,1145233929,1145233928,2,9.4,001929,001928,288.1,34.872210,-121.135503,9.76,NaN,NaN,14.023, NaN,NaN,NaN, NaN, NaN,NaN
20060417,003239,1384330,34.872688,-121.137198,17.4,13.795,32.933,39.698,821.15,0.0, NaN,13.774,13.713, NaN,24.561,   NaN,-40.00,1016.38,83.34,13.90,339.0,337.5,10.7,11.6,256.3,256.1,6.3,7.3,NaN, NaN,16.0,291.6,292.7,1145233958,1145233958,2,10.0,001959,001958,291.6,34.872610,-121.137088,9.52,NaN,NaN,14.025, NaN,NaN,NaN, NaN, NaN,NaN
20060417,003309,1384361,34.873138,-121.138717,17.1,13.709,32.994,39.689,815.35,0.0, NaN,13.760,13.702, NaN,24.628,   NaN,-40.00,1016.50,83.41,13.90,342.5,340.1,10.8,11.7,259.0,256.9,6.2,7.2,NaN, NaN,16.0,294.1,289.1,1145233988,1145233988,2,8.6,001989,001988,294.1,34.873063,-121.138615,9.19,NaN,NaN,13.940, NaN,NaN,1.6, NaN, NaN,NaN
20060417,003339,1384391,34.873506,-121.139597,17.1,13.758,32.918,39.647,805.50,0.0, NaN,13.761,13.702, NaN,24.556,   NaN,-40.00,1016.44,83.48,13.91,333.2,333.2,9.7,10.4,255.7,257.2,6.2,6.9,NaN, NaN,17.0,322.7,306.1,1145234019,1145234018,2,3.9,002019,002018,322.7,34.873408,-121.139568,5.27,NaN,NaN,13.988, NaN,NaN,1.9, NaN, NaN,NaN
20060417,003409,1384421,34.873873,-121.139873,17.4,13.789,32.909,39.666,794.29,0.0, NaN,13.756,13.698, NaN,24.543,   NaN,-40.00,1016.30,83.53,13.90,307.3,311.6,7.9,8.3,253.9,259.6,6.4,6.6,NaN, NaN,18.0,354.6,339.3,1145234049,1145234048,2,2.3,002049,002048,354.6,34.873756,-121.139937,2.88,NaN,NaN,14.019, NaN,NaN,1.9, NaN, NaN,NaN
20060417,003439,1384450,34.874103,-121.139898,17.6,13.759,32.943,39.675,768.95,0.0, NaN,13.744,13.687, NaN,24.576,   NaN,-40.00,1016.38,83.97,13.89,273.5,271.5,6.4,4.9,253.1,247.5,6.4,4.9,NaN, NaN,18.0,7.8,11.8,1145234078,1145234078,2,2.0,002079,002078,7.8,34.874005,-121.140003,1.92,NaN,NaN,13.989, NaN,NaN,NaN, NaN, NaN,NaN
20060417,003509,1384480,34.874253,-121.139878,17.3,13.736,32.947,39.661,762.56,0.0, NaN,13.736,13.675, NaN,24.584,   NaN,-40.00,1016.44,84.27,13.92,256.2,251.1,5.7,2.5,252.9,240.7,6.0,2.9,NaN, NaN,17.0,0.6,318.0,1145234108,1145234108,2,1.3,002109,002108,0.6,34.874141,-121.139953,1.49,NaN,NaN,13.967, NaN,NaN,NaN, NaN, NaN,NaN
20060417,003539,1384510,34.874291,-121.139827,17.2,13.730,32.939,39.646,801.47,0.0, NaN,13.727,13.669, NaN,24.579,   NaN,-40.00,1016.42,84.00,13.93,256.2,262.7,5.7,1.9,249.5,243.8,5.9,2.1,NaN, NaN,17.0,347.5,356.9,1145234138,1145234138,2,0.2,002139,002138,347.5,34.874175,-121.139873,0.18,NaN,NaN,13.961, NaN,NaN,NaN, NaN, NaN,NaN